DateTimeUTC,F1_A11,F1_S11,BsB_S11,BsG_S11,BsR_S11,BbsB_S11,BbsG_S11,BbsR_S11,BaB_A11,BaG_A11,BaR_A11,Tu_S11,T_S11,Uu_S11,U_S11,P_S11,T1_A11
2021-02-17T21:00:00Z,00000200,21000000,,,,,,,0000.13,-000.08,-000.31,16.7,23.3,,00.0,0636.8,31.0
2021-02-17T21:01:00Z,00000200,21000000,,,,,,,0000.30,0000.15,0000.09,16.7,23.3,,00.0,0636.8,31.0
2021-02-17T21:02:00Z,00000200,21000000,,,,,,,-000.13,-000.22,-000.09,16.6,23.3,,00.0,0636.8,31.0
2021-02-17T21:03:00Z,00000200,61000000,,,,,,,0000.13,0000.18,0000.22,16.6,23.3,,00.0,0636.8,31.0
2021-02-17T21:04:00Z,00000200,41000000,0000.17,0000.17,-000.02,0000.06,0000.28,-000.25,0000.03,-000.02,-000.06,16.7,23.1,,00.0,0637.6,31.0
2021-02-17T21:05:00Z,00000200,01000000,-000.06,0000.14,0000.06,-000.02,-000.15,0000.26,0000.30,0000.36,0000.24,16.8,23.0,,00.0,0637.6,31.0
2021-02-17T21:06:00Z,00000200,01000000,0000.21,0000.24,-000.08,0000.23,-000.09,0000.01,-000.30,-000.23,0000.03,16.8,23.0,,00.0,0637.7,31.0
2021-02-17T21:07:00Z,00000200,01000000,-000.27,0000.11,0000.06,-000.12,0000.13,0000.09,0000.13,0000.02,-000.12,16.8,23.0,,00.0,0637.7,31.0
2021-02-17T21:08:00Z,00000200,01000000,0000.32,0000.60,0000.14,0000.20,0000.08,0000.01,0000.00,0000.28,-000.03,16.8,23.0,,00.0,0637.7,31.0
2021-02-17T21:09:00Z,00000200,01000000,0000.04,0000.37,-000.04,-000.49,-000.17,0000.11,0000.26,-000.02,-000.00,16.7,23.0,,00.0,0637.7,31.0
2021-02-17T21:10:00Z,00000200,01000000,-000.39,0000.23,-000.04,-000.22,0000.10,0000.03,-000.21,-000.00,0000.42,16.7,23.0,,00.0,0637.7,31.0
2021-02-17T21:11:00Z,00000200,01000000,0000.21,0000.08,0000.09,0000.39,0000.10,0000.26,0000.01,-000.02,-000.25,16.7,22.9,,00.0,0637.7,31.0
2021-02-17T21:12:00Z,00000200,01000000,-000.02,0000.07,0000.07,-000.17,0000.13,0000.15,-000.12,0000.03,-000.16,16.7,22.9,00.0,00.0,0637.6,31.0
2021-02-17T21:13:00Z,00000200,01000000,0000.13,0000.10,0000.02,0000.02,0000.00,-000.08,0000.48,0000.04,0000.08,16.6,22.9,,00.0,0637.6,31.0
2021-02-17T21:14:00Z,00000200,01000000,0000.32,0000.46,0000.08,0000.09,0000.09,0000.07,-000.18,0000.05,-000.18,16.6,22.9,,00.0,0637.7,30.9
2021-02-17T21:15:00Z,00000200,01000000,0000.67,0000.36,0000.01,-000.40,0000.07,-000.11,0000.08,-000.10,0000.30,16.6,22.9,,00.0,0637.6,30.9
2021-02-17T21:16:00Z,00000200,01000000,0000.29,0000.53,0000.04,0000.08,-000.21,0000.09,-000.17,0000.09,0000.10,16.6,22.9,,00.0,0637.6,30.9
2021-02-17T21:17:00Z,00000200,01000000,-000.11,0000.20,-000.03,0000.02,0000.02,-000.04,-000.01,-000.07,-000.30,16.6,22.9,,00.0,0637.6,30.9
2021-02-17T21:18:00Z,00000200,01000000,0000.59,0000.25,-000.05,0000.24,0000.04,0000.01,0000.42,0000.08,0000.12,16.5,22.8,,00.0,0637.6,31.0
2021-02-17T21:19:00Z,00000200,01000000,0000.00,0000.34,0000.07,-000.00,-000.16,0000.12,0000.25,0000.15,0000.44,16.5,22.8,,00.0,0637.6,31.0
2021-02-17T21:20:00Z,00000200,01000000,0001.01,0000.51,-000.11,0000.14,0000.02,0000.04,0000.17,0000.28,0000.32,16.6,22.8,,00.0,0637.6,30.9
2021-02-17T21:21:00Z,00000200,01000000,0000.13,0000.17,0000.22,-000.25,0000.09,-000.11,0000.36,0000.58,-000.04,16.7,22.8,,00.0,0637.5,30.9
2021-02-17T21:22:00Z,00000200,01000000,0000.60,0000.17,0000.13,0000.11,0000.07,0000.13,0000.28,0000.04,0000.44,16.8,22.9,,00.0,0637.5,31.0
2021-02-17T21:23:00Z,00000200,01000000,0000.13,0000.48,0000.20,-000.06,0000.10,0000.16,-000.01,-000.10,0000.05,16.9,22.9,,00.0,0637.5,31.0
2021-02-17T21:24:00Z,00000200,01000000,0000.02,0000.12,-000.02,0000.06,0000.01,0000.20,0000.04,0000.37,0000.03,17.0,23.0,,00.0,0637.6,31.0
2021-02-17T21:25:00Z,00000200,01000000,0000.31,0000.11,0000.14,-000.44,-000.04,0000.17,0000.05,-000.02,-000.46,17.1,23.0,,00.0,0637.6,31.0
2021-02-17T21:26:00Z,00000200,01000000,0000.45,0000.40,0000.06,-000.34,0000.18,0000.00,-000.30,-000.11,0000.14,17.1,23.1,,00.0,0637.6,31.0
2021-02-17T21:27:00Z,00000200,01000000,-000.06,0000.15,-000.32,0000.14,0000.22,-000.31,0000.00,-000.04,-000.00,17.2,23.1,,00.0,0637.6,31.0
2021-02-17T21:28:00Z,00000200,01000000,0000.70,-000.05,-000.18,0000.29,0000.08,-000.18,-000.19,-000.10,-000.04,17.2,23.1,,00.0,0637.6,31.0
2021-02-17T21:29:00Z,00000200,01000000,0000.16,0000.13,-000.06,-000.29,0000.03,-000.11,0000.33,0000.06,-000.14,17.1,23.1,,00.0,0637.6,31.0
2021-02-17T21:30:00Z,00000200,01000000,-000.37,0000.15,0000.15,0000.22,-000.13,-000.22,0000.03,0000.07,0000.28,17.1,23.1,,00.0,0637.7,31.0
2021-02-17T21:31:00Z,00000200,01000000,0000.10,0000.42,-000.05,-000.16,-000.02,-000.02,-000.26,-000.22,-000.09,17.1,23.0,,00.0,0637.7,31.0
2021-02-17T21:32:00Z,00000200,01000000,-000.29,0000.33,-000.10,-000.54,0000.25,-000.06,0000.17,0000.41,-000.17,17.0,23.0,,00.0,0637.7,31.0
2021-02-17T21:33:00Z,00000200,01000000,-000.05,0000.34,0000.05,0000.31,0000.13,0000.29,-000.06,-000.25,0000.25,17.0,23.0,00.0,00.0,0637.7,31.0
2021-02-17T21:34:00Z,00000200,01000000,0000.41,0000.38,0000.25,0000.33,0000.07,0000.10,0000.32,0000.04,-000.14,17.0,23.0,,00.0,0637.7,31.0
2021-02-17T21:35:00Z,00000200,01000000,0000.36,0000.09,0000.09,0000.21,-000.00,0000.01,0000.36,0000.43,0000.67,17.0,23.0,,00.0,0637.6,31.0
2021-02-17T21:36:00Z,00000200,01000000,0000.26,0000.40,0000.13,0000.34,0000.14,0000.14,0000.39,0000.22,-000.13,17.1,23.1,,00.0,0637.6,31.0
2021-02-17T21:37:00Z,00000200,01000000,-000.26,0000.37,0000.36,0000.25,0000.11,-000.05,-000.23,0000.13,0000.11,17.2,23.1,,00.0,0637.7,31.0
2021-02-17T21:38:00Z,00000200,01000000,0000.03,0000.39,-000.08,0000.15,0000.05,-000.06,-000.08,-000.15,0000.01,17.2,23.1,,00.0,0637.6,31.0
2021-02-17T21:39:00Z,00000200,01000000,0000.45,0000.20,0000.14,0000.07,-000.07,-000.15,-000.11,0000.05,-000.03,17.3,23.1,,00.0,0637.6,31.0
2021-02-17T21:40:00Z,00000200,01000000,0000.43,0000.25,-000.12,0000.08,-000.02,-000.12,0000.59,0000.01,0000.29,17.2,23.1,,00.0,0637.6,31.0
2021-02-17T21:41:00Z,00000200,01000000,0000.36,0000.08,-000.04,0000.17,-000.11,0000.17,0000.05,0000.11,-000.26,17.2,23.1,00.0,00.0,0637.6,31.0
2021-02-17T21:42:00Z,00000200,01000000,-000.08,0000.37,-000.15,-000.42,0000.10,-000.32,-000.34,0000.06,0000.36,17.2,23.1,,00.0,0637.6,31.0
2021-02-17T21:43:00Z,00000200,01000000,-000.24,0000.27,0000.34,0000.07,0000.08,0000.18,0000.21,0000.52,-000.21,17.2,23.1,,00.0,0637.6,31.0
2021-02-17T21:44:00Z,00000200,01000000,-000.07,0000.28,0000.11,0000.22,-000.04,-000.14,0000.10,-000.44,0000.14,17.1,23.1,,00.0,0637.6,31.0
2021-02-17T21:45:00Z,00000200,01000000,0001.13,0000.33,0000.12,0000.14,-000.01,-000.04,-000.16,0000.11,-000.10,17.1,23.1,,00.0,0637.5,31.0
2021-02-17T21:46:00Z,00000200,01000000,0000.30,0000.35,0000.04,0000.12,-000.15,0000.37,0000.18,0000.04,0000.03,17.1,23.1,00.0,00.0,0637.5,31.0
2021-02-17T21:47:00Z,00000200,01000000,0000.40,0000.54,-000.14,-000.08,0000.01,-000.03,0000.10,-000.25,0000.03,17.1,23.1,,00.0,0637.5,31.0
2021-02-17T21:48:00Z,00000200,01000000,0000.16,0000.09,0000.17,-000.56,-000.06,0000.16,-000.10,-000.21,-000.25,17.0,23.1,,00.0,0637.5,31.0
2021-02-17T21:49:00Z,00000200,01000000,0000.43,0000.02,0000.60,-000.24,-000.23,0000.01,0000.09,0000.29,0000.44,17.0,23.0,,00.0,0637.6,31.0
2021-02-17T21:50:00Z,00000200,01000000,0000.68,-000.05,-000.04,0000.51,0000.10,-000.05,0000.13,0000.41,-000.04,17.1,23.0,,00.0,0637.6,31.0
2021-02-17T21:51:00Z,00000200,01000000,-000.31,0000.42,0000.04,0000.49,0000.01,-000.00,0000.12,0000.16,0000.20,17.1,23.1,,00.0,0637.5,31.0
2021-02-17T21:52:00Z,00000200,01000000,0000.54,0000.26,-000.09,0000.00,0000.34,-000.08,0000.07,0000.23,-000.04,17.2,23.1,,00.0,0637.5,31.0
2021-02-17T21:53:00Z,00000200,01000000,0000.07,0000.08,-000.13,-000.25,0000.00,-000.06,0000.38,0000.12,0000.15,17.3,23.2,,00.0,0637.6,31.0
2021-02-17T21:54:00Z,00000200,01000000,0000.23,0000.09,0000.09,0000.62,-000.03,-000.05,-000.42,-000.21,0000.13,17.4,23.2,,00.0,0637.6,31.0
2021-02-17T21:55:00Z,00000200,01000000,0000.02,0000.17,0000.20,-000.05,0000.14,-000.08,0000.33,0000.17,0000.04,17.5,23.3,,00.0,0637.6,31.1
2021-02-17T21:56:00Z,00000200,01000000,0000.44,0000.19,0000.11,-000.46,0000.15,-000.06,-000.16,0000.09,-000.33,17.6,23.3,,00.0,0637.6,31.1
2021-02-17T21:57:00Z,00000200,41000000,,,,,,,-000.25,-000.17,0000.12,17.7,23.4,,00.0,0637.7,31.1
2021-02-17T21:58:00Z,00000200,61000000,,,,,,,-000.06,-000.30,0000.11,17.6,23.5,,00.0,0636.8,31.1
2021-02-17T21:59:00Z,00000200,21000000,,,,,,,0000.27,-000.37,-000.23,17.6,23.6,,00.0,0636.7,31.1
